Year,Month,Day,Hour,Minute,Value (Times are PST for temperature in C)
2021,06,26,00,00,23.00
2021,06,26,00,01,23.00
2021,06,26,00,02,23.00
2021,06,26,00,03,22.90
2021,06,26,00,04,22.90
2021,06,26,00,05,22.90
2021,06,26,00,06,22.80
2021,06,26,00,07,22.80
2021,06,26,00,08,22.90
2021,06,26,00,09,22.90
2021,06,26,00,10,22.90
2021,06,26,00,11,22.90
2021,06,26,00,12,23.00
2021,06,26,00,13,23.00
2021,06,26,00,14,23.10
2021,06,26,00,15,23.20
2021,06,26,00,16,23.20
2021,06,26,00,17,23.20
2021,06,26,00,18,23.20
2021,06,26,00,19,23.20
2021,06,26,00,20,23.10
2021,06,26,00,21,23.00
2021,06,26,00,22,23.00
2021,06,26,00,23,22.90
2021,06,26,00,24,22.90
2021,06,26,00,25,22.90
2021,06,26,00,26,22.80
2021,06,26,00,27,22.80
2021,06,26,00,28,22.80
2021,06,26,00,29,22.80
2021,06,26,00,30,22.80
2021,06,26,00,31,22.70
2021,06,26,00,32,22.70
2021,06,26,00,33,22.60
2021,06,26,00,34,22.70
2021,06,26,00,35,22.80
2021,06,26,00,36,22.80
2021,06,26,00,37,22.80
2021,06,26,00,38,22.80
2021,06,26,00,39,22.80
2021,06,26,00,40,22.80
2021,06,26,00,41,22.80
2021,06,26,00,42,22.80
2021,06,26,00,43,22.80
2021,06,26,00,44,22.80
2021,06,26,00,45,22.80
2021,06,26,00,46,22.70
2021,06,26,00,47,22.70
2021,06,26,00,48,22.60
2021,06,26,00,49,22.60
2021,06,26,00,50,22.50
2021,06,26,00,51,22.50
2021,06,26,00,52,22.50
2021,06,26,00,53,22.50
2021,06,26,00,54,22.40
2021,06,26,00,55,22.30
2021,06,26,00,56,22.20
2021,06,26,00,57,22.20
2021,06,26,00,58,22.20
2021,06,26,00,59,22.20
2021,06,26,01,00,22.20
2021,06,26,01,01,22.20
2021,06,26,01,02,22.20
2021,06,26,01,03,22.20
2021,06,26,01,04,22.20
2021,06,26,01,05,22.20
2021,06,26,01,06,22.20
2021,06,26,01,07,22.20
2021,06,26,01,08,22.20
2021,06,26,01,09,22.10
2021,06,26,01,10,22.20
2021,06,26,01,11,22.20
2021,06,26,01,12,22.30
2021,06,26,01,13,22.30
2021,06,26,01,14,22.30
2021,06,26,01,15,22.40
2021,06,26,01,16,22.40
2021,06,26,01,17,22.50
2021,06,26,01,18,22.60
2021,06,26,01,19,22.60
2021,06,26,01,20,22.60
2021,06,26,01,21,22.60
2021,06,26,01,22,22.60
2021,06,26,01,23,22.50
2021,06,26,01,24,22.40
2021,06,26,01,25,22.40
2021,06,26,01,26,22.30
2021,06,26,01,27,22.20
2021,06,26,01,28,22.10
2021,06,26,01,29,22.00
2021,06,26,01,30,21.90
2021,06,26,01,31,21.90
2021,06,26,01,32,21.80
2021,06,26,01,33,21.80
2021,06,26,01,34,21.70
2021,06,26,01,35,21.70
2021,06,26,01,36,21.70
2021,06,26,01,37,21.70
2021,06,26,01,38,21.60
2021,06,26,01,39,21.60
2021,06,26,01,40,21.60
2021,06,26,01,41,21.60
2021,06,26,01,42,21.50
2021,06,26,01,43,21.50
2021,06,26,01,44,21.50
2021,06,26,01,45,21.50
2021,06,26,01,46,21.50
2021,06,26,01,47,21.50
2021,06,26,01,48,21.50
2021,06,26,01,49,21.50
2021,06,26,01,50,21.50
2021,06,26,01,51,21.50
2021,06,26,01,52,21.60
2021,06,26,01,53,21.60
2021,06,26,01,54,21.70
2021,06,26,01,55,21.70
2021,06,26,01,56,21.70
2021,06,26,01,57,21.70
2021,06,26,01,58,21.70
2021,06,26,01,59,21.70
2021,06,26,02,00,21.60
2021,06,26,02,01,21.60
2021,06,26,02,02,21.60
2021,06,26,02,03,21.60
2021,06,26,02,04,21.60
2021,06,26,02,05,21.60
2021,06,26,02,06,21.60
2021,06,26,02,07,21.60
2021,06,26,02,08,21.60
2021,06,26,02,09,21.60
2021,06,26,02,10,21.60
2021,06,26,02,11,21.50
2021,06,26,02,12,21.50
2021,06,26,02,13,21.40
2021,06,26,02,14,21.40
2021,06,26,02,15,21.30
2021,06,26,02,16,21.30
2021,06,26,02,17,21.20
2021,06,26,02,18,21.20
2021,06,26,02,19,21.20
2021,06,26,02,20,21.10
2021,06,26,02,21,21.10
2021,06,26,02,22,21.10
2021,06,26,02,23,21.20
2021,06,26,02,24,21.20
2021,06,26,02,25,21.30
2021,06,26,02,26,21.40
2021,06,26,02,27,21.50
2021,06,26,02,28,21.60
2021,06,26,02,29,21.70
2021,06,26,02,30,21.70
2021,06,26,02,31,21.80
2021,06,26,02,32,21.80
2021,06,26,02,33,21.80
2021,06,26,02,34,21.80
2021,06,26,02,35,21.80
2021,06,26,02,36,21.80
2021,06,26,02,37,21.80
2021,06,26,02,38,21.80
2021,06,26,02,39,21.80
2021,06,26,02,40,21.70
2021,06,26,02,41,21.60
2021,06,26,02,42,21.60
2021,06,26,02,43,21.60
2021,06,26,02,44,21.50
2021,06,26,02,45,21.40
2021,06,26,02,46,21.40
2021,06,26,02,47,21.40
2021,06,26,02,48,21.40
2021,06,26,02,49,21.30
2021,06,26,02,50,21.30
2021,06,26,02,51,21.20
2021,06,26,02,52,21.20
2021,06,26,02,53,21.10
2021,06,26,02,54,21.00
2021,06,26,02,55,20.90
2021,06,26,02,56,20.90
2021,06,26,02,57,20.80
2021,06,26,02,58,20.80
2021,06,26,02,59,20.80
2021,06,26,03,00,20.90
2021,06,26,03,01,21.00
2021,06,26,03,02,21.10
2021,06,26,03,03,21.20
2021,06,26,03,04,21.30
2021,06,26,03,05,21.30
2021,06,26,03,06,21.30
2021,06,26,03,07,21.30
2021,06,26,03,08,21.30
2021,06,26,03,09,21.20
2021,06,26,03,10,21.20
2021,06,26,03,11,21.10
2021,06,26,03,12,21.10
2021,06,26,03,13,21.10
2021,06,26,03,14,21.10
2021,06,26,03,15,21.00
2021,06,26,03,16,21.00
2021,06,26,03,17,21.00
2021,06,26,03,18,21.00
2021,06,26,03,19,21.00
2021,06,26,03,20,21.10
2021,06,26,03,21,21.10
2021,06,26,03,22,21.20
2021,06,26,03,23,21.20
2021,06,26,03,24,21.20
2021,06,26,03,25,21.20
2021,06,26,03,26,21.20
2021,06,26,03,27,21.20
2021,06,26,03,28,21.10
2021,06,26,03,29,21.00
2021,06,26,03,30,21.00
2021,06,26,03,31,20.90
2021,06,26,03,32,20.90
2021,06,26,03,33,20.90
2021,06,26,03,34,20.80
2021,06,26,03,35,20.80
2021,06,26,03,36,20.80
2021,06,26,03,37,20.80
2021,06,26,03,38,20.70
2021,06,26,03,39,20.60
2021,06,26,03,40,20.50
2021,06,26,03,41,20.40
2021,06,26,03,42,20.30
2021,06,26,03,43,20.20
2021,06,26,03,44,20.20
2021,06,26,03,45,20.20
2021,06,26,03,46,20.20
2021,06,26,03,47,20.30
2021,06,26,03,48,20.30
2021,06,26,03,49,20.30
2021,06,26,03,50,20.30
2021,06,26,03,51,20.30
2021,06,26,03,52,20.30
2021,06,26,03,53,20.20
2021,06,26,03,54,20.20
2021,06,26,03,55,20.10
2021,06,26,03,56,20.10
2021,06,26,03,57,20.00
2021,06,26,03,58,20.00
2021,06,26,03,59,20.00
2021,06,26,04,00,19.90
2021,06,26,04,01,19.90
2021,06,26,04,02,19.90
2021,06,26,04,03,19.90
2021,06,26,04,04,19.90
2021,06,26,04,05,20.00
2021,06,26,04,06,20.00
2021,06,26,04,07,20.00
2021,06,26,04,08,20.10
2021,06,26,04,09,20.10
2021,06,26,04,10,20.10
2021,06,26,04,11,20.10
2021,06,26,04,12,20.10
2021,06,26,04,13,20.10
2021,06,26,04,14,20.00
2021,06,26,04,15,20.00
2021,06,26,04,16,20.00
2021,06,26,04,17,20.10
2021,06,26,04,18,20.10
2021,06,26,04,19,20.20
2021,06,26,04,20,20.20
2021,06,26,04,21,20.20
2021,06,26,04,22,20.20
2021,06,26,04,23,20.20
2021,06,26,04,24,20.20
2021,06,26,04,25,20.20
2021,06,26,04,26,20.10
2021,06,26,04,27,20.10
2021,06,26,04,28,20.20
2021,06,26,04,29,20.20
2021,06,26,04,30,20.20
2021,06,26,04,31,20.30
2021,06,26,04,32,20.30
2021,06,26,04,33,20.30
2021,06,26,04,34,20.30
2021,06,26,04,35,20.30
2021,06,26,04,36,20.20
2021,06,26,04,37,20.20
2021,06,26,04,38,20.10
2021,06,26,04,39,20.10
2021,06,26,04,40,20.10
2021,06,26,04,41,20.00
2021,06,26,04,42,20.00
2021,06,26,04,43,20.00
2021,06,26,04,44,20.00
2021,06,26,04,45,20.00
2021,06,26,04,46,20.10
2021,06,26,04,47,20.10
2021,06,26,04,48,20.10
2021,06,26,04,49,20.20
2021,06,26,04,50,20.20
2021,06,26,04,51,20.20
2021,06,26,04,52,20.10
2021,06,26,04,53,20.10
2021,06,26,04,54,20.10
2021,06,26,04,55,20.00
2021,06,26,04,56,20.00
2021,06,26,04,57,19.90
2021,06,26,04,58,19.90
2021,06,26,04,59,19.80
2021,06,26,05,00,19.90
2021,06,26,05,01,19.90
2021,06,26,05,02,20.00
2021,06,26,05,03,20.10
2021,06,26,05,04,20.10
2021,06,26,05,05,20.10
2021,06,26,05,06,20.10
2021,06,26,05,07,20.00
2021,06,26,05,08,20.00
2021,06,26,05,09,19.90
2021,06,26,05,10,19.90
2021,06,26,05,11,19.90
2021,06,26,05,12,19.90
2021,06,26,05,13,19.80
2021,06,26,05,14,19.80
2021,06,26,05,15,19.80
2021,06,26,05,16,19.80
2021,06,26,05,17,19.80
2021,06,26,05,18,19.80
2021,06,26,05,19,19.80
2021,06,26,05,20,19.70
2021,06,26,05,21,19.80
2021,06,26,05,22,19.80
2021,06,26,05,23,19.70
2021,06,26,05,24,19.70
2021,06,26,05,25,19.70
2021,06,26,05,26,19.70
2021,06,26,05,27,19.70
2021,06,26,05,28,19.70
2021,06,26,05,29,19.70
2021,06,26,05,30,19.70
2021,06,26,05,31,19.80
2021,06,26,05,32,19.80
2021,06,26,05,33,19.80
2021,06,26,05,34,19.80
2021,06,26,05,35,19.80
2021,06,26,05,36,19.80
2021,06,26,05,37,19.80
2021,06,26,05,38,19.80
2021,06,26,05,39,19.80
2021,06,26,05,40,19.80
2021,06,26,05,41,19.80
2021,06,26,05,42,19.80
2021,06,26,05,43,19.70
2021,06,26,05,44,19.70
2021,06,26,05,45,19.60
2021,06,26,05,46,19.60
2021,06,26,05,47,19.60
2021,06,26,05,48,19.70
2021,06,26,05,49,19.80
2021,06,26,05,50,19.90
2021,06,26,05,51,19.90
2021,06,26,05,52,19.90
2021,06,26,05,53,19.90
2021,06,26,05,54,20.00
2021,06,26,05,55,20.00
2021,06,26,05,56,20.10
2021,06,26,05,57,20.10
2021,06,26,05,58,20.20
2021,06,26,05,59,20.20
2021,06,26,06,00,20.30
2021,06,26,06,01,20.40
2021,06,26,06,02,20.40
2021,06,26,06,03,20.50
2021,06,26,06,04,20.50
2021,06,26,06,05,20.60
2021,06,26,06,06,20.70
2021,06,26,06,07,20.70
2021,06,26,06,08,20.70
2021,06,26,06,09,20.70
2021,06,26,06,10,20.70
2021,06,26,06,11,20.70
2021,06,26,06,12,20.70
2021,06,26,06,13,20.70
2021,06,26,06,14,20.70
2021,06,26,06,15,20.60
2021,06,26,06,16,20.60
2021,06,26,06,17,20.50
2021,06,26,06,18,20.50
2021,06,26,06,19,20.40
2021,06,26,06,20,20.40
2021,06,26,06,21,20.50
2021,06,26,06,22,20.60
2021,06,26,06,23,20.60
2021,06,26,06,24,20.60
2021,06,26,06,25,20.60
2021,06,26,06,26,20.60
2021,06,26,06,27,20.60
2021,06,26,06,28,20.60
2021,06,26,06,29,20.70
2021,06,26,06,30,20.80
2021,06,26,06,31,20.80
2021,06,26,06,32,20.90
2021,06,26,06,33,20.90
2021,06,26,06,34,21.00
2021,06,26,06,35,21.00
2021,06,26,06,36,21.10
2021,06,26,06,37,21.10
2021,06,26,06,38,21.20
2021,06,26,06,39,21.20
2021,06,26,06,40,21.30
2021,06,26,06,41,21.30
2021,06,26,06,42,21.40
2021,06,26,06,43,21.40
2021,06,26,06,44,21.50
2021,06,26,06,45,21.50
2021,06,26,06,46,21.60
2021,06,26,06,47,21.60
2021,06,26,06,48,21.70
2021,06,26,06,49,21.70
2021,06,26,06,50,21.70
2021,06,26,06,51,21.80
2021,06,26,06,52,21.80
2021,06,26,06,53,21.80
2021,06,26,06,54,21.80
2021,06,26,06,55,21.80
2021,06,26,06,56,21.90
2021,06,26,06,57,21.90
2021,06,26,06,58,21.90
2021,06,26,06,59,21.90
2021,06,26,07,00,22.00
2021,06,26,07,01,22.10
2021,06,26,07,02,22.10
2021,06,26,07,03,22.10
2021,06,26,07,04,22.20
2021,06,26,07,05,22.30
2021,06,26,07,06,22.30
2021,06,26,07,07,22.30
2021,06,26,07,08,22.40
2021,06,26,07,09,22.50
2021,06,26,07,10,22.60
2021,06,26,07,11,22.70
2021,06,26,07,12,22.80
2021,06,26,07,13,22.80
2021,06,26,07,14,22.90
2021,06,26,07,15,23.00
2021,06,26,07,16,23.00
2021,06,26,07,17,23.10
2021,06,26,07,18,23.30
2021,06,26,07,19,23.40
2021,06,26,07,20,23.50
2021,06,26,07,21,23.70
2021,06,26,07,22,23.80
2021,06,26,07,23,24.00
2021,06,26,07,24,24.10
2021,06,26,07,25,24.20
2021,06,26,07,26,24.40
2021,06,26,07,27,24.50
2021,06,26,07,28,24.70
2021,06,26,07,29,24.80
2021,06,26,07,30,24.90
2021,06,26,07,31,25.00
2021,06,26,07,32,25.20
2021,06,26,07,33,25.30
2021,06,26,07,34,25.40
2021,06,26,07,35,25.50
2021,06,26,07,36,25.60
2021,06,26,07,37,25.70
2021,06,26,07,38,25.80
2021,06,26,07,39,25.90
2021,06,26,07,40,25.90
2021,06,26,07,41,26.00
2021,06,26,07,42,26.10
2021,06,26,07,43,26.10
2021,06,26,07,44,26.10
2021,06,26,07,45,26.10
2021,06,26,07,46,26.20
2021,06,26,07,47,26.20
2021,06,26,07,48,26.20
2021,06,26,07,49,26.20
2021,06,26,07,50,26.20
2021,06,26,07,51,26.20
2021,06,26,07,52,26.10
2021,06,26,07,53,26.10
2021,06,26,07,54,26.10
2021,06,26,07,55,26.10
2021,06,26,07,56,26.10
2021,06,26,07,57,26.10
2021,06,26,07,58,26.10
2021,06,26,07,59,26.10
2021,06,26,08,00,26.10
2021,06,26,08,01,26.10
2021,06,26,08,02,26.10
2021,06,26,08,03,26.10
2021,06,26,08,04,26.10
2021,06,26,08,05,26.00
2021,06,26,08,06,25.90
2021,06,26,08,07,25.90
2021,06,26,08,08,25.90
2021,06,26,08,09,25.90
2021,06,26,08,10,26.00
2021,06,26,08,11,26.00
2021,06,26,08,12,26.10
2021,06,26,08,13,26.10
2021,06,26,08,14,26.20
2021,06,26,08,15,26.20
2021,06,26,08,16,26.20
2021,06,26,08,17,26.20
2021,06,26,08,18,26.30
2021,06,26,08,19,26.30
2021,06,26,08,20,26.40
2021,06,26,08,21,26.40
2021,06,26,08,22,26.50
2021,06,26,08,23,26.60
2021,06,26,08,24,26.60
2021,06,26,08,25,26.70
2021,06,26,08,26,26.70
2021,06,26,08,27,26.70
2021,06,26,08,28,26.80
2021,06,26,08,29,26.80
2021,06,26,08,30,26.90
2021,06,26,08,31,26.90
2021,06,26,08,32,27.00
2021,06,26,08,33,27.00
2021,06,26,08,34,27.10
2021,06,26,08,35,27.20
2021,06,26,08,36,27.20
2021,06,26,08,37,27.20
2021,06,26,08,38,27.10
2021,06,26,08,39,27.10
2021,06,26,08,40,27.00
2021,06,26,08,41,27.00
2021,06,26,08,42,27.00
2021,06,26,08,43,27.00
2021,06,26,08,44,27.00
2021,06,26,08,45,27.00
2021,06,26,08,46,27.00
2021,06,26,08,47,27.00
2021,06,26,08,48,27.00
2021,06,26,08,49,27.00
2021,06,26,08,50,27.00
2021,06,26,08,51,27.10
2021,06,26,08,52,27.10
2021,06,26,08,53,27.10
2021,06,26,08,54,27.10
2021,06,26,08,55,27.10
2021,06,26,08,56,27.20
2021,06,26,08,57,27.20
2021,06,26,08,58,27.20
2021,06,26,08,59,27.20
2021,06,26,09,00,27.30
2021,06,26,09,01,27.30
2021,06,26,09,02,27.40
2021,06,26,09,03,27.40
2021,06,26,09,04,27.50
2021,06,26,09,05,27.50
2021,06,26,09,06,27.40
2021,06,26,09,07,27.40
2021,06,26,09,08,27.30
2021,06,26,09,09,27.30
2021,06,26,09,10,27.30
2021,06,26,09,11,27.30
2021,06,26,09,12,27.40
2021,06,26,09,13,27.40
2021,06,26,09,14,27.50
2021,06,26,09,15,27.60
2021,06,26,09,16,27.60
2021,06,26,09,17,27.70
2021,06,26,09,18,27.70
2021,06,26,09,19,27.70
2021,06,26,09,20,27.80
2021,06,26,09,21,27.80
2021,06,26,09,22,27.90
2021,06,26,09,23,28.00
2021,06,26,09,24,28.10
2021,06,26,09,25,28.10
2021,06,26,09,26,28.10
2021,06,26,09,27,28.20
2021,06,26,09,28,28.20
2021,06,26,09,29,28.30
2021,06,26,09,30,28.40
2021,06,26,09,31,28.40
2021,06,26,09,32,28.40
2021,06,26,09,33,28.40
2021,06,26,09,34,28.40
2021,06,26,09,35,28.40
2021,06,26,09,36,28.50
2021,06,26,09,37,28.50
2021,06,26,09,38,28.60
2021,06,26,09,39,28.60
2021,06,26,09,40,28.60
2021,06,26,09,41,28.70
2021,06,26,09,42,28.70
2021,06,26,09,43,28.80
2021,06,26,09,44,28.80
2021,06,26,09,45,28.80
2021,06,26,09,46,28.90
2021,06,26,09,47,28.90
2021,06,26,09,48,28.90
2021,06,26,09,49,28.90
2021,06,26,09,50,29.00
2021,06,26,09,51,29.00
2021,06,26,09,52,29.10
2021,06,26,09,53,29.10
2021,06,26,09,54,29.10
2021,06,26,09,55,29.00
2021,06,26,09,56,28.90
2021,06,26,09,57,28.90
2021,06,26,09,58,28.90
2021,06,26,09,59,28.90
2021,06,26,10,00,28.90
2021,06,26,10,01,29.00
2021,06,26,10,02,29.00
2021,06,26,10,03,29.10
2021,06,26,10,04,29.10
2021,06,26,10,05,29.20
2021,06,26,10,06,29.20
2021,06,26,10,07,29.20
2021,06,26,10,08,29.20
2021,06,26,10,09,29.20
2021,06,26,10,10,29.20
2021,06,26,10,11,29.20
2021,06,26,10,12,29.10
2021,06,26,10,13,29.00
2021,06,26,10,14,29.00
2021,06,26,10,15,29.00
2021,06,26,10,16,29.00
2021,06,26,10,17,29.10
2021,06,26,10,18,29.10
2021,06,26,10,19,29.10
2021,06,26,10,20,29.20
2021,06,26,10,21,29.30
2021,06,26,10,22,29.30
2021,06,26,10,23,29.30
2021,06,26,10,24,29.40
2021,06,26,10,25,29.40
2021,06,26,10,26,29.50
2021,06,26,10,27,29.60
2021,06,26,10,28,29.60
2021,06,26,10,29,29.60
2021,06,26,10,30,29.60
2021,06,26,10,31,29.60
2021,06,26,10,32,29.70
2021,06,26,10,33,29.70
2021,06,26,10,34,29.70
2021,06,26,10,35,29.70
2021,06,26,10,36,29.70
2021,06,26,10,37,29.80
2021,06,26,10,38,29.90
2021,06,26,10,39,30.00
2021,06,26,10,40,30.10
2021,06,26,10,41,30.10
2021,06,26,10,42,30.10
2021,06,26,10,43,30.20
2021,06,26,10,44,30.30
2021,06,26,10,45,30.30
2021,06,26,10,46,30.40
2021,06,26,10,47,30.50
2021,06,26,10,48,30.60
2021,06,26,10,49,30.60
2021,06,26,10,50,30.60
2021,06,26,10,51,30.60
2021,06,26,10,52,30.50
2021,06,26,10,53,30.50
2021,06,26,10,54,30.40
2021,06,26,10,55,30.40
2021,06,26,10,56,30.30
2021,06,26,10,57,30.30
2021,06,26,10,58,30.20
2021,06,26,10,59,30.10
2021,06,26,11,00,30.10
2021,06,26,11,01,30.10
2021,06,26,11,02,30.10
2021,06,26,11,03,30.20
2021,06,26,11,04,30.20
2021,06,26,11,05,30.30
2021,06,26,11,06,30.30
2021,06,26,11,07,30.30
2021,06,26,11,08,30.30
2021,06,26,11,09,30.40
2021,06,26,11,10,30.40
2021,06,26,11,11,30.40
2021,06,26,11,12,30.40
2021,06,26,11,13,30.40
2021,06,26,11,14,30.40
2021,06,26,11,15,30.40
2021,06,26,11,16,30.30
2021,06,26,11,17,30.30
2021,06,26,11,18,30.30
2021,06,26,11,19,30.30
2021,06,26,11,20,30.30
2021,06,26,11,21,30.30
2021,06,26,11,22,30.40
2021,06,26,11,23,30.60
2021,06,26,11,24,30.70
2021,06,26,11,25,30.80
2021,06,26,11,26,31.00
2021,06,26,11,27,31.10
2021,06,26,11,28,31.10
2021,06,26,11,29,31.20
2021,06,26,11,30,31.30
2021,06,26,11,31,31.30
2021,06,26,11,32,31.40
2021,06,26,11,33,31.40
2021,06,26,11,34,31.40
2021,06,26,11,35,31.40
2021,06,26,11,36,31.40
2021,06,26,11,37,31.40
2021,06,26,11,38,31.40
2021,06,26,11,39,31.40
2021,06,26,11,40,31.50
2021,06,26,11,41,31.50
2021,06,26,11,42,31.50
2021,06,26,11,43,31.40
2021,06,26,11,44,31.30
2021,06,26,11,45,31.30
2021,06,26,11,46,31.30
2021,06,26,11,47,31.30
2021,06,26,11,48,31.40
2021,06,26,11,49,31.50
2021,06,26,11,50,31.60
2021,06,26,11,51,31.70
2021,06,26,11,52,31.70
2021,06,26,11,53,31.80
2021,06,26,11,54,31.80
2021,06,26,11,55,31.90
2021,06,26,11,56,31.90
2021,06,26,11,57,32.00
2021,06,26,11,58,32.00
2021,06,26,11,59,32.10
2021,06,26,12,00,32.10
2021,06,26,12,01,32.10
2021,06,26,12,02,32.10
2021,06,26,12,03,32.20
2021,06,26,12,04,32.10
2021,06,26,12,05,32.20
2021,06,26,12,06,32.20
2021,06,26,12,07,32.20
2021,06,26,12,08,32.30
2021,06,26,12,09,32.20
2021,06,26,12,10,32.20
2021,06,26,12,11,32.30
2021,06,26,12,12,32.30
2021,06,26,12,13,32.30
2021,06,26,12,14,32.40
2021,06,26,12,15,32.30
2021,06,26,12,16,32.30
2021,06,26,12,17,32.30
2021,06,26,12,18,32.20
2021,06,26,12,19,32.20
2021,06,26,12,20,32.20
2021,06,26,12,21,32.20
2021,06,26,12,22,32.20
2021,06,26,12,23,32.30
2021,06,26,12,24,32.30
2021,06,26,12,25,32.30
2021,06,26,12,26,32.30
2021,06,26,12,27,32.30
2021,06,26,12,28,32.30
2021,06,26,12,29,32.30
2021,06,26,12,30,32.30
2021,06,26,12,31,32.40
2021,06,26,12,32,32.40
2021,06,26,12,33,32.50
2021,06,26,12,34,32.50
2021,06,26,12,35,32.50
2021,06,26,12,36,32.50
2021,06,26,12,37,32.40
2021,06,26,12,38,32.40
2021,06,26,12,39,32.50
2021,06,26,12,40,32.40
2021,06,26,12,41,32.40
2021,06,26,12,42,32.30
2021,06,26,12,43,32.30
2021,06,26,12,44,32.30
2021,06,26,12,45,32.30
2021,06,26,12,46,32.40
2021,06,26,12,47,32.50
2021,06,26,12,48,32.60
2021,06,26,12,49,32.70
2021,06,26,12,50,32.80
2021,06,26,12,51,32.90
2021,06,26,12,52,33.00
2021,06,26,12,53,33.00
2021,06,26,12,54,33.10
2021,06,26,12,55,33.10
2021,06,26,12,56,33.10
2021,06,26,12,57,33.20
2021,06,26,12,58,33.30
2021,06,26,12,59,33.30
2021,06,26,13,00,33.20
2021,06,26,13,01,33.20
2021,06,26,13,02,33.20
2021,06,26,13,03,33.20
2021,06,26,13,04,33.30
2021,06,26,13,05,33.30
2021,06,26,13,06,33.30
2021,06,26,13,07,33.30
2021,06,26,13,08,33.20
2021,06,26,13,09,33.20
2021,06,26,13,10,33.20
2021,06,26,13,11,33.20
2021,06,26,13,12,33.20
2021,06,26,13,13,33.30
2021,06,26,13,14,33.30
2021,06,26,13,15,33.30
2021,06,26,13,16,33.30
2021,06,26,13,17,33.30
2021,06,26,13,18,33.30
2021,06,26,13,19,33.30
2021,06,26,13,20,33.30
2021,06,26,13,21,33.30
2021,06,26,13,22,33.40
2021,06,26,13,23,33.40
2021,06,26,13,24,33.40
2021,06,26,13,25,33.50
2021,06,26,13,26,33.50
2021,06,26,13,27,33.60
2021,06,26,13,28,33.60
2021,06,26,13,29,33.60
2021,06,26,13,30,33.60
2021,06,26,13,31,33.70
2021,06,26,13,32,33.70
2021,06,26,13,33,33.60
2021,06,26,13,34,33.60
2021,06,26,13,35,33.50
2021,06,26,13,36,33.60
2021,06,26,13,37,33.70
2021,06,26,13,38,33.70
2021,06,26,13,39,33.80
2021,06,26,13,40,33.80
2021,06,26,13,41,33.70
2021,06,26,13,42,33.80
2021,06,26,13,43,33.80
2021,06,26,13,44,33.80
2021,06,26,13,45,33.80
2021,06,26,13,46,33.90
2021,06,26,13,47,33.90
2021,06,26,13,48,33.90
2021,06,26,13,49,33.90
2021,06,26,13,50,34.00
2021,06,26,13,51,34.00
2021,06,26,13,52,34.10
2021,06,26,13,53,34.10
2021,06,26,13,54,34.20
2021,06,26,13,55,34.10
2021,06,26,13,56,34.10
2021,06,26,13,57,34.00
2021,06,26,13,58,34.00
2021,06,26,13,59,34.00
2021,06,26,14,00,34.10
2021,06,26,14,01,34.10
2021,06,26,14,02,34.20
2021,06,26,14,03,34.30
2021,06,26,14,04,34.30
2021,06,26,14,05,34.40
2021,06,26,14,06,34.40
2021,06,26,14,07,34.40
2021,06,26,14,08,34.30
2021,06,26,14,09,34.30
2021,06,26,14,10,34.30
2021,06,26,14,11,34.30
2021,06,26,14,12,34.30
2021,06,26,14,13,34.20
2021,06,26,14,14,34.20
2021,06,26,14,15,34.20
2021,06,26,14,16,34.20
2021,06,26,14,17,34.20
2021,06,26,14,18,34.20
2021,06,26,14,19,34.30
2021,06,26,14,20,34.30
2021,06,26,14,21,34.30
2021,06,26,14,22,34.30
2021,06,26,14,23,34.20
2021,06,26,14,24,34.20
2021,06,26,14,25,34.10
2021,06,26,14,26,34.20
2021,06,26,14,27,34.20
2021,06,26,14,28,34.20
2021,06,26,14,29,34.30
2021,06,26,14,30,34.30
2021,06,26,14,31,34.40
2021,06,26,14,32,34.40
2021,06,26,14,33,34.40
2021,06,26,14,34,34.40
2021,06,26,14,35,34.40
2021,06,26,14,36,34.50
2021,06,26,14,37,34.40
2021,06,26,14,38,34.40
2021,06,26,14,39,34.30
2021,06,26,14,40,34.30
2021,06,26,14,41,34.30
2021,06,26,14,42,34.30
2021,06,26,14,43,34.30
2021,06,26,14,44,34.30
2021,06,26,14,45,34.30
2021,06,26,14,46,34.30
2021,06,26,14,47,34.30
2021,06,26,14,48,34.40
2021,06,26,14,49,34.40
2021,06,26,14,50,34.40
2021,06,26,14,51,34.40
2021,06,26,14,52,34.40
2021,06,26,14,53,34.40
2021,06,26,14,54,34.50
2021,06,26,14,55,34.50
2021,06,26,14,56,34.60
2021,06,26,14,57,34.70
2021,06,26,14,58,34.70
2021,06,26,14,59,34.60
2021,06,26,15,00,34.50
2021,06,26,15,01,34.40
2021,06,26,15,02,34.40
2021,06,26,15,03,34.30
2021,06,26,15,04,34.30
2021,06,26,15,05,34.30
2021,06,26,15,06,34.40
2021,06,26,15,07,34.40
2021,06,26,15,08,34.50
2021,06,26,15,09,34.60
2021,06,26,15,10,34.60
2021,06,26,15,11,34.60
2021,06,26,15,12,34.70
2021,06,26,15,13,34.70
2021,06,26,15,14,34.70
2021,06,26,15,15,34.80
2021,06,26,15,16,34.80
2021,06,26,15,17,34.80
2021,06,26,15,18,34.80
2021,06,26,15,19,34.80
2021,06,26,15,20,34.80
2021,06,26,15,21,34.80
2021,06,26,15,22,34.90
2021,06,26,15,23,34.90
2021,06,26,15,24,34.90
2021,06,26,15,25,34.90
2021,06,26,15,26,34.90
2021,06,26,15,27,34.90
2021,06,26,15,28,35.00
2021,06,26,15,29,35.00
2021,06,26,15,30,35.10
2021,06,26,15,31,35.10
2021,06,26,15,32,35.20
2021,06,26,15,33,35.20
2021,06,26,15,34,35.20
2021,06,26,15,35,35.20
2021,06,26,15,36,35.20
2021,06,26,15,37,35.30
2021,06,26,15,38,35.30
2021,06,26,15,39,35.30
2021,06,26,15,40,35.40
2021,06,26,15,41,35.40
2021,06,26,15,42,35.50
2021,06,26,15,43,35.50
2021,06,26,15,44,35.60
2021,06,26,15,45,35.60
2021,06,26,15,46,35.70
2021,06,26,15,47,35.70
2021,06,26,15,48,35.70
2021,06,26,15,49,35.70
2021,06,26,15,50,35.70
2021,06,26,15,51,35.70
2021,06,26,15,52,35.70
2021,06,26,15,53,35.80
2021,06,26,15,54,35.80
2021,06,26,15,55,35.80
2021,06,26,15,56,35.80
2021,06,26,15,57,35.80
2021,06,26,15,58,35.80
2021,06,26,15,59,35.80
2021,06,26,16,00,35.80
2021,06,26,16,01,35.80
2021,06,26,16,02,35.80
2021,06,26,16,03,35.80
2021,06,26,16,04,35.80
2021,06,26,16,05,35.90
2021,06,26,16,06,35.90
2021,06,26,16,07,35.90
2021,06,26,16,08,35.80
2021,06,26,16,09,35.80
2021,06,26,16,10,35.80
2021,06,26,16,11,35.70
2021,06,26,16,12,35.70
2021,06,26,16,13,35.80
2021,06,26,16,14,35.80
2021,06,26,16,15,35.80
2021,06,26,16,16,35.80
2021,06,26,16,17,35.80
2021,06,26,16,18,35.80
2021,06,26,16,19,35.90
2021,06,26,16,20,36.00
2021,06,26,16,21,36.10
2021,06,26,16,22,36.10
2021,06,26,16,23,36.20
2021,06,26,16,24,36.20
2021,06,26,16,25,36.20
2021,06,26,16,26,36.20
2021,06,26,16,27,36.20
2021,06,26,16,28,36.20
2021,06,26,16,29,36.20
2021,06,26,16,30,36.20
2021,06,26,16,31,36.20
2021,06,26,16,32,36.20
2021,06,26,16,33,36.20
2021,06,26,16,34,36.20
2021,06,26,16,35,36.20
2021,06,26,16,36,36.20
2021,06,26,16,37,36.10
2021,06,26,16,38,36.10
2021,06,26,16,39,36.10
2021,06,26,16,40,36.10
2021,06,26,16,41,36.10
2021,06,26,16,42,36.10
2021,06,26,16,43,36.10
2021,06,26,16,44,36.20
2021,06,26,16,45,36.20
2021,06,26,16,46,36.30
2021,06,26,16,47,36.30
2021,06,26,16,48,36.30
2021,06,26,16,49,36.30
2021,06,26,16,50,36.30
2021,06,26,16,51,36.30
2021,06,26,16,52,36.40
2021,06,26,16,53,36.40
2021,06,26,16,54,36.50
2021,06,26,16,55,36.50
2021,06,26,16,56,36.60
2021,06,26,16,57,36.60
2021,06,26,16,58,36.50
2021,06,26,16,59,36.50
2021,06,26,17,00,36.50
2021,06,26,17,01,36.50
2021,06,26,17,02,36.60
2021,06,26,17,03,36.60
2021,06,26,17,04,36.60
2021,06,26,17,05,36.60
2021,06,26,17,06,36.60
2021,06,26,17,07,36.60
2021,06,26,17,08,36.60
2021,06,26,17,09,36.60
2021,06,26,17,10,36.60
2021,06,26,17,11,36.60
2021,06,26,17,12,36.50
2021,06,26,17,13,36.50
2021,06,26,17,14,36.40
2021,06,26,17,15,36.40
2021,06,26,17,16,36.30
2021,06,26,17,17,36.30
2021,06,26,17,18,36.30
2021,06,26,17,19,36.30